TimeEDT,TemperatureF,Dew PointF,Humidity,Sea Level PressureIn,VisibilityMPH,Wind Direction,Wind SpeedMPH,Gust SpeedMPH,PrecipitationIn,Events,Conditions,WindDirDegrees,DateUTC
3:15 AM,71.8,71.8,100,30.17,4.0,Calm,Calm,-,N/A,,Overcast,0,2013-08-12 07:15:00
3:35 AM,72.0,72.0,100,30.16,4.0,SW,5.8,-,N/A,,Overcast,230,2013-08-12 07:35:00
3:55 AM,72.0,72.0,100,30.16,3.0,Calm,Calm,-,N/A,,Overcast,0,2013-08-12 07:55:00
4:15 AM,72.0,72.0,100,30.17,3.0,West,3.5,-,N/A,,Overcast,270,2013-08-12 08:15:00
4:35 AM,71.8,71.8,100,30.17,2.5,West,3.5,-,N/A,,Overcast,260,2013-08-12 08:35:00
4:55 AM,72.0,72.0,100,30.17,3.0,Calm,Calm,-,N/A,,Overcast,0,2013-08-12 08:55:00
5:15 AM,72.0,72.0,100,30.17,3.0,Calm,Calm,-,N/A,,Overcast,0,2013-08-12 09:15:00
5:35 AM,72.1,72.1,100,30.17,4.0,Calm,Calm,-,N/A,,Overcast,0,2013-08-12 09:35:00
5:55 AM,72.1,72.1,100,30.17,4.0,Calm,Calm,-,N/A,,Overcast,0,2013-08-12 09:55:00
6:15 AM,72.0,72.0,100,30.17,4.0,WSW,3.5,-,N/A,,Overcast,250,2013-08-12 10:15:00
6:35 AM,72.0,72.0,100,30.18,4.0,WSW,3.5,-,N/A,,Overcast,250,2013-08-12 10:35:00
6:55 AM,71.8,71.8,100,30.17,3.0,WSW,3.5,-,N/A,,Overcast,240,2013-08-12 10:55:00
7:15 AM,71.8,71.8,100,30.18,2.0,Calm,Calm,-,N/A,,Overcast,0,2013-08-12 11:15:00
7:35 AM,71.8,71.8,100,30.18,2.5,West,4.6,-,N/A,,Overcast,260,2013-08-12 11:35:00
7:55 AM,72.1,72.1,100,30.17,2.5,West,3.5,-,N/A,,Overcast,270,2013-08-12 11:55:00
8:15 AM,72.7,72.7,100,30.17,2.5,WSW,4.6,-,N/A,,Overcast,250,2013-08-12 12:15:00
8:35 AM,73.2,73.2,100,30.17,3.0,WSW,3.5,-,N/A,,Overcast,240,2013-08-12 12:35:00
8:55 AM,73.6,73.6,100,30.17,4.0,West,3.5,-,N/A,,Overcast,270,2013-08-12 12:55:00
9:15 AM,74.1,73.8,99,30.16,4.0,WSW,3.5,-,N/A,,Overcast,250,2013-08-12 13:15:00
9:35 AM,75.4,73.9,95,30.16,5.0,West,3.5,-,N/A,,Overcast,260,2013-08-12 13:35:00
9:55 AM,76.1,74.1,94,30.16,5.0,West,4.6,-,N/A,,Overcast,260,2013-08-12 13:55:00
10:15 AM,76.3,74.3,94,30.16,5.0,West,6.9,-,N/A,,Overcast,270,2013-08-12 14:15:00
10:35 AM,76.5,74.1,92,30.17,5.0,WSW,8.1,-,N/A,,Overcast,250,2013-08-12 14:35:00
10:55 AM,76.5,74.1,92,30.17,5.0,WSW,6.9,-,N/A,,Overcast,250,2013-08-12 14:55:00
11:15 AM,77.2,73.9,90,30.17,7.0,WSW,6.9,-,N/A,,Overcast,240,2013-08-12 15:15:00
11:35 AM,77.2,73.4,88,30.17,7.0,West,5.8,-,N/A,,Overcast,280,2013-08-12 15:35:00
11:55 AM,77.5,73.6,88,30.16,5.0,West,5.8,-,N/A,,Overcast,270,2013-08-12 15:55:00
12:15 PM,77.9,73.8,87,30.16,4.0,WNW,5.8,-,N/A,,Overcast,290,2013-08-12 16:15:00
12:35 PM,78.3,73.8,86,30.16,4.0,WNW,5.8,-,N/A,,Mostly Cloudy,290,2013-08-12 16:35:00
12:55 PM,79.9,74.5,83,30.15,4.0,WSW,5.8,-,N/A,,Haze,250,2013-08-12 16:55:00
1:15 PM,80.1,74.1,82,30.15,5.0,West,8.1,-,N/A,,Haze,270,2013-08-12 17:15:00
1:35 PM,81.1,73.8,78,30.14,5.0,NW,10.4,-,N/A,,Haze,310,2013-08-12 17:35:00
1:55 PM,81.7,75.4,81,30.13,5.0,West,9.2,-,N/A,,Haze,270,2013-08-12 17:55:00
2:15 PM,81.5,74.3,79,30.12,5.0,West,9.2,-,N/A,,Haze,280,2013-08-12 18:15:00
2:35 PM,82.8,74.8,77,30.11,10.0,WNW,6.9,-,N/A,,Scattered Clouds,300,2013-08-12 18:35:00
2:55 PM,81.0,74.1,80,30.11,7.0,WNW,4.6,-,N/A,,Mostly Cloudy,290,2013-08-12 18:55:00
3:15 PM,81.3,74.1,79,30.10,10.0,West,8.1,-,N/A,,Mostly Cloudy,280,2013-08-12 19:15:00
3:35 PM,82.4,74.7,77,30.09,10.0,West,6.9,-,N/A,,Scattered Clouds,280,2013-08-12 19:35:00
3:55 PM,81.5,73.9,78,30.09,10.0,West,4.6,-,N/A,,Mostly Cloudy,280,2013-08-12 19:55:00
4:15 PM,81.9,73.2,75,30.08,10.0,West,5.8,-,N/A,,Scattered Clouds,270,2013-08-12 20:15:00
4:35 PM,81.0,73.9,79,30.08,10.0,West,4.6,-,N/A,,Scattered Clouds,270,2013-08-12 20:35:00
4:55 PM,81.7,74.3,78,30.06,10.0,West,5.8,-,N/A,Thunderstorm,Scattered Clouds,270,2013-08-12 20:55:00
5:15 PM,81.3,74.5,80,30.07,10.0,West,5.8,-,N/A,,Scattered Clouds,270,2013-08-12 21:15:00
5:35 PM,80.8,75.2,83,30.07,7.0,West,4.6,-,N/A,,Overcast,280,2013-08-12 21:35:00
5:55 PM,80.6,74.5,82,30.07,10.0,West,5.8,-,N/A,,Mostly Cloudy,280,2013-08-12 21:55:00
6:15 PM,79.7,74.3,83,30.08,10.0,WNW,4.6,-,N/A,Thunderstorm,Mostly Cloudy,300,2013-08-12 22:15:00
6:35 PM,77.7,75.2,92,30.07,7.0,West,4.6,-,0.01,Rain,Light Rain,280,2013-08-12 22:35:00
6:55 PM,75.7,75.7,100,30.09,4.0,NNW,8.1,-,0.08,Rain-Thunderstorm,Light Thunderstorms and Rain,330,2013-08-12 22:55:00
7:15 PM,70.7,70.2,98,30.09,10.0,East,6.9,-,0.02,Rain-Thunderstorm,Light Thunderstorms and Rain,80,2013-08-12 23:15:00
7:35 PM,69.3,69.3,100,30.09,10.0,East,4.6,-,0.02,,Overcast,80,2013-08-12 23:35:00
7:55 PM,69.3,69.3,100,30.09,10.0,East,3.5,-,0.02,,Overcast,100,2013-08-12 23:55:00
8:15 PM,69.3,69.3,100,30.10,10.0,SE,4.6,-,N/A,,Overcast,130,2013-08-13 00:15:00
8:35 PM,69.3,69.3,100,30.10,10.0,ESE,4.6,-,N/A,,Overcast,110,2013-08-13 00:35:00
8:55 PM,69.6,69.6,100,30.09,10.0,East,3.5,-,N/A,Rain,Rain,100,2013-08-13 00:55:00
9:15 PM,69.3,69.3,100,30.09,10.0,Calm,Calm,-,N/A,,Mostly Cloudy,0,2013-08-13 01:15:00
9:35 PM,69.1,69.1,100,30.08,10.0,Calm,Calm,-,N/A,,Scattered Clouds,0,2013-08-13 01:35:00
9:55 PM,68.9,68.9,100,30.07,10.0,Calm,Calm,-,N/A,,Clear,0,2013-08-13 01:55:00
10:15 PM,68.5,68.5,100,30.08,10.0,Calm,Calm,-,N/A,,Clear,0,2013-08-13 02:15:00
10:35 PM,68.4,68.4,100,30.07,10.0,Calm,Calm,-,N/A,,Scattered Clouds,0,2013-08-13 02:35:00
10:55 PM,68.0,68.0,100,30.06,10.0,Calm,Calm,-,N/A,,Clear,0,2013-08-13 02:55:00
11:15 PM,68.0,68.0,100,30.06,10.0,Calm,Calm,-,N/A,,Clear,0,2013-08-13 03:15:00
11:35 PM,68.0,68.0,100,30.07,10.0,Calm,Calm,-,N/A,,Scattered Clouds,0,2013-08-13 03:35:00
11:55 PM,68.0,68.0,100,30.06,10.0,Calm,Calm,-,N/A,,Overcast,0,2013-08-13 03:55:00